Time,TemperatureF,DewpointF,PressureIn,WindDirection,WindDirectionDegrees,WindSpeedMPH,WindSpeedGustMPH,Humidity,HourlyPrecipIn,Conditions,Clouds,dailyrainin,SoftwareType,DateUTC
2013-05-24 00:03:00,49.0,43.0,-100.00,SE,130,0.0,0.0,78,0.00,,,-99.99,,2013-05-24 04:03:00,
2013-05-24 00:12:00,49.0,43.0,-100.00,SE,145,0.0,0.0,78,0.00,,,-99.99,,2013-05-24 04:12:00,
2013-05-24 00:22:00,49.0,43.0,-100.00,SE,130,0.0,0.0,79,0.00,,,-99.99,,2013-05-24 04:22:00,
2013-05-24 00:33:00,49.0,43.0,-100.00,ESE,120,0.0,0.0,79,0.00,,,-99.99,,2013-05-24 04:33:00,
2013-05-24 00:42:00,49.0,42.0,-100.00,SE,130,0.0,0.0,77,0.00,,,-99.99,,2013-05-24 04:42:00,
2013-05-24 00:53:00,49.0,42.0,-100.00,ESE,115,0.0,0.0,76,0.00,,,-99.99,,2013-05-24 04:53:00,
2013-05-24 01:02:00,49.0,42.0,-100.00,ESE,115,0.0,0.0,76,0.00,,,-99.99,,2013-05-24 05:02:00,
2013-05-24 01:12:00,49.0,42.0,-100.00,SE,130,0.0,0.0,78,0.00,,,-99.99,,2013-05-24 05:12:00,
2013-05-24 01:22:00,49.0,43.0,-100.00,ESE,120,0.0,0.0,80,0.00,,,-99.99,,2013-05-24 05:22:00,
2013-05-24 01:32:00,48.0,43.0,-100.00,SE,135,0.0,0.0,81,0.00,,,-99.99,,2013-05-24 05:32:00,
2013-05-24 01:42:00,47.0,43.0,-100.00,ESE,115,0.0,0.0,85,0.00,,,-99.99,,2013-05-24 05:42:00,
2013-05-24 01:52:00,48.0,42.0,-100.00,SE,130,0.0,0.0,81,0.00,,,-99.99,,2013-05-24 05:52:00,
2013-05-24 02:02:00,47.0,41.0,-100.00,SE,130,0.0,0.0,79,0.00,,,-99.99,,2013-05-24 06:02:00,
2013-05-24 02:12:00,47.0,41.0,-100.00,ESE,120,0.0,0.0,78,0.00,,,-99.99,,2013-05-24 06:12:00,
2013-05-24 02:21:00,47.0,41.0,-100.00,ESE,115,0.0,0.0,81,0.00,,,-99.99,,2013-05-24 06:21:00,
2013-05-24 02:32:00,46.0,41.0,-100.00,SE,140,0.0,0.0,80,0.00,,,-99.99,,2013-05-24 06:32:00,
2013-05-24 02:42:00,46.0,40.0,-100.00,ESE,120,0.0,0.0,78,0.00,,,-99.99,,2013-05-24 06:42:00,
2013-05-24 02:52:00,46.0,40.0,-100.00,ESE,115,0.0,0.0,79,0.00,,,-99.99,,2013-05-24 06:52:00,
2013-05-24 03:02:00,46.0,40.0,-100.00,ESE,105,0.0,0.0,80,0.00,,,-99.99,,2013-05-24 07:02:00,
2013-05-24 03:11:00,46.0,40.0,-100.00,ESE,115,0.0,0.0,79,0.00,,,-99.99,,2013-05-24 07:11:00,
2013-05-24 03:22:00,46.0,40.0,-100.00,ESE,115,0.0,0.0,78,0.00,,,-99.99,,2013-05-24 07:22:00,
2013-05-24 03:32:00,46.0,39.0,-100.00,ESE,110,0.0,0.0,77,0.00,,,-99.99,,2013-05-24 07:32:00,
2013-05-24 03:42:00,46.0,39.0,-100.00,SE,125,0.0,0.0,76,0.00,,,-99.99,,2013-05-24 07:42:00,
2013-05-24 03:52:00,46.0,39.0,-100.00,ESE,110,0.0,0.0,75,0.00,,,-99.99,,2013-05-24 07:52:00,
2013-05-24 04:02:00,46.0,38.0,-100.00,ESE,120,0.0,0.0,74,0.00,,,-99.99,,2013-05-24 08:02:00,
2013-05-24 04:11:00,46.0,38.0,-100.00,ESE,115,0.0,0.0,73,0.00,,,-99.99,,2013-05-24 08:11:00,
2013-05-24 04:22:00,46.0,37.0,-100.00,SE,135,0.0,0.0,72,0.00,,,-99.99,,2013-05-24 08:22:00,
2013-05-24 04:33:00,46.0,37.0,-100.00,ESE,120,0.0,0.0,72,0.00,,,-99.99,,2013-05-24 08:33:00,
2013-05-24 04:42:00,46.0,37.0,-100.00,ESE,105,0.0,0.0,72,0.00,,,-99.99,,2013-05-24 08:42:00,
2013-05-24 04:52:00,45.0,38.0,-100.00,ESE,115,0.0,0.0,75,0.00,,,-99.99,,2013-05-24 08:52:00,
2013-05-24 05:02:00,45.0,38.0,-100.00,ESE,110,0.0,0.0,76,0.00,,,-99.99,,2013-05-24 09:02:00,
2013-05-24 05:11:00,45.0,38.0,-100.00,ESE,120,0.0,0.0,76,0.00,,,-99.99,,2013-05-24 09:11:00,
2013-05-24 05:21:00,45.0,38.0,-100.00,East,100,0.0,0.0,76,0.00,,,-99.99,,2013-05-24 09:21:00,
2013-05-24 05:32:00,44.0,38.0,-100.00,ESE,110,0.0,0.0,77,0.00,,,-99.99,,2013-05-24 09:32:00,
2013-05-24 05:42:00,44.0,37.0,-100.00,ESE,115,0.0,0.0,76,0.00,,,-99.99,,2013-05-24 09:42:00,
2013-05-24 05:52:00,44.0,37.0,-100.00,East,100,0.0,0.0,76,0.00,,,-99.99,,2013-05-24 09:52:00,
2013-05-24 06:03:00,44.0,37.0,-100.00,ESE,105,0.0,0.0,76,0.00,,,-99.99,,2013-05-24 10:03:00,
2013-05-24 06:12:00,44.0,37.0,-100.00,ESE,110,0.0,0.0,75,0.00,,,-99.99,,2013-05-24 10:12:00,
2013-05-24 06:22:00,44.0,37.0,-100.00,SE,125,0.0,0.0,75,0.00,,,-99.99,,2013-05-24 10:22:00,
2013-05-24 06:33:00,44.0,37.0,-100.00,SE,125,0.0,0.0,75,0.00,,,-99.99,,2013-05-24 10:33:00,
2013-05-24 06:42:00,44.0,37.0,-100.00,ESE,120,0.0,0.0,74,0.00,,,-99.99,,2013-05-24 10:42:00,
2013-05-24 06:52:00,44.0,37.0,-100.00,ESE,120,0.0,0.0,74,0.00,,,-99.99,,2013-05-24 10:52:00,
2013-05-24 07:02:00,44.0,37.0,-100.00,ESE,115,0.0,0.0,74,0.00,,,-99.99,,2013-05-24 11:02:00,
2013-05-24 07:12:00,45.0,37.0,-100.00,SE,125,0.0,0.0,74,0.00,,,-99.99,,2013-05-24 11:12:00,
2013-05-24 07:22:00,45.0,37.0,-100.00,ESE,115,0.0,0.0,74,0.00,,,-99.99,,2013-05-24 11:22:00,
2013-05-24 07:32:00,45.0,37.0,-100.00,ESE,110,0.0,0.0,73,0.00,,,-99.99,,2013-05-24 11:32:00,
2013-05-24 07:42:00,44.0,37.0,-100.00,SE,130,0.0,0.0,74,0.00,,,-99.99,,2013-05-24 11:42:00,
2013-05-24 07:51:00,45.0,37.0,-100.00,East,95,0.0,0.0,72,0.00,,,-99.99,,2013-05-24 11:51:00,
2013-05-24 08:02:00,46.0,37.0,-100.00,SE,130,0.0,0.0,71,0.00,,,-99.99,,2013-05-24 12:02:00,
2013-05-24 08:11:00,45.0,37.0,-100.00,ESE,115,0.0,0.0,70,0.00,,,-99.99,,2013-05-24 12:11:00,
2013-05-24 08:22:00,46.0,36.0,-100.00,SE,145,0.0,0.0,69,0.00,,,-99.99,,2013-05-24 12:22:00,
2013-05-24 08:32:00,46.0,36.0,-100.00,SE,145,0.0,0.0,67,0.00,,,-99.99,,2013-05-24 12:32:00,
2013-05-24 08:42:00,47.0,36.0,-100.00,SE,135,0.0,0.0,66,0.00,,,-99.99,,2013-05-24 12:42:00,
2013-05-24 08:52:00,47.0,35.0,-100.00,ESE,110,0.0,0.0,64,0.00,,,-99.99,,2013-05-24 12:52:00,
2013-05-24 09:02:00,47.0,35.0,-100.00,SE,125,0.0,0.0,63,0.00,,,-99.99,,2013-05-24 13:02:00,
2013-05-24 09:11:00,46.0,35.0,-100.00,ESE,105,0.0,0.0,63,0.00,,,-99.99,,2013-05-24 13:11:00,
2013-05-24 09:21:00,47.0,35.0,-100.00,ESE,105,0.0,0.0,63,0.00,,,-99.99,,2013-05-24 13:21:00,
2013-05-24 09:32:00,46.0,35.0,-100.00,ESE,115,0.0,0.0,65,0.00,,,-99.99,,2013-05-24 13:32:00,
2013-05-24 09:42:00,47.0,35.0,-100.00,SE,130,0.0,0.0,65,0.00,,,-99.99,,2013-05-24 13:42:00,
2013-05-24 09:52:00,47.0,36.0,-100.00,ESE,105,0.0,0.0,65,0.00,,,-99.99,,2013-05-24 13:52:00,
2013-05-24 10:02:00,47.0,35.0,-100.00,ESE,110,0.0,0.0,62,0.00,,,-99.99,,2013-05-24 14:02:00,
2013-05-24 10:11:00,47.0,35.0,-100.00,SE,135,0.0,0.0,61,0.00,,,-99.99,,2013-05-24 14:11:00,
2013-05-24 10:21:00,47.0,35.0,-100.00,ESE,105,0.0,0.0,63,0.00,,,-99.99,,2013-05-24 14:21:00,
2013-05-24 10:32:00,47.0,36.0,-100.00,SE,130,0.0,0.0,64,0.00,,,-99.99,,2013-05-24 14:32:00,
2013-05-24 10:42:00,48.0,35.0,-100.00,ESE,120,0.0,0.0,62,0.00,,,-99.99,,2013-05-24 14:42:00,
2013-05-24 10:52:00,49.0,35.0,-100.00,ESE,115,0.0,0.0,58,0.00,,,-99.99,,2013-05-24 14:52:00,
2013-05-24 11:02:00,49.0,33.0,-100.00,SE,130,0.0,0.0,55,0.00,,,-99.99,,2013-05-24 15:02:00,
2013-05-24 11:11:00,49.0,35.0,-100.00,SE,130,0.0,0.0,56,0.00,,,-99.99,,2013-05-24 15:11:00,
2013-05-24 11:21:00,50.0,35.0,-100.00,East,95,0.0,0.0,54,0.00,,,-99.99,,2013-05-24 15:21:00,
2013-05-24 11:33:00,50.0,34.0,-100.00,SE,145,0.0,0.0,53,0.00,,,-99.99,,2013-05-24 15:33:00,
2013-05-24 11:43:00,51.0,34.0,-100.00,ESE,120,0.0,0.0,53,0.00,,,-99.99,,2013-05-24 15:43:00,
2013-05-24 11:52:00,52.0,34.0,-100.00,East,95,0.0,0.0,50,0.00,,,-99.99,,2013-05-24 15:52:00,
2013-05-24 12:03:00,51.0,35.0,-100.00,ESE,105,0.0,0.0,52,0.00,,,-99.99,,2013-05-24 16:03:00,
2013-05-24 12:12:00,51.0,34.0,-100.00,ESE,105,0.0,0.0,50,0.00,,,-99.99,,2013-05-24 16:12:00,
2013-05-24 12:22:00,51.0,34.0,-100.00,ESE,105,0.0,0.0,52,0.00,,,-99.99,,2013-05-24 16:22:00,
2013-05-24 12:32:00,51.0,35.0,-100.00,East,90,0.0,0.0,54,0.00,,,-99.99,,2013-05-24 16:32:00,
2013-05-24 12:42:00,53.0,34.0,-100.00,ESE,115,0.0,0.0,48,0.00,,,-99.99,,2013-05-24 16:42:00,
2013-05-24 12:52:00,52.0,34.0,-100.00,ENE,70,0.0,0.0,50,0.00,,,-99.99,,2013-05-24 16:52:00,
2013-05-24 13:02:00,53.0,34.0,-100.00,ESE,110,0.0,0.0,48,0.00,,,-99.99,,2013-05-24 17:02:00,
2013-05-24 13:12:00,55.0,34.0,-100.00,ESE,120,0.0,0.0,45,0.00,,,-99.99,,2013-05-24 17:12:00,
2013-05-24 13:22:00,54.0,34.0,-100.00,ESE,105,0.0,0.0,47,0.00,,,-99.99,,2013-05-24 17:22:00,
2013-05-24 13:32:00,54.0,34.0,-100.00,SE,140,0.0,0.0,47,0.00,,,-99.99,,2013-05-24 17:32:00,
2013-05-24 13:42:00,55.0,34.0,-100.00,East,100,0.0,0.0,46,0.00,,,-99.99,,2013-05-24 17:42:00,
2013-05-24 13:52:00,55.0,35.0,-100.00,East,100,0.0,0.0,46,0.00,,,-99.99,,2013-05-24 17:52:00,
2013-05-24 14:01:00,55.0,36.0,-100.00,East,85,0.0,0.0,48,0.00,,,-99.99,,2013-05-24 18:01:00,
2013-05-24 14:12:00,55.0,34.0,-100.00,SE,125,0.0,0.0,45,0.00,,,-99.99,,2013-05-24 18:12:00,
2013-05-24 14:21:00,55.0,34.0,-100.00,SE,135,0.0,0.0,45,0.00,,,-99.99,,2013-05-24 18:21:00,
2013-05-24 14:32:00,54.0,34.0,-100.00,ESE,120,0.0,0.0,45,0.00,,,-99.99,,2013-05-24 18:32:00,
2013-05-24 14:42:00,55.0,35.0,-100.00,East,100,0.0,0.0,46,0.00,,,-99.99,,2013-05-24 18:42:00,
2013-05-24 14:51:00,55.0,35.0,-100.00,East,100,0.0,0.0,46,0.00,,,-99.99,,2013-05-24 18:51:00,
2013-05-24 15:01:00,55.0,35.0,-100.00,ESE,115,0.0,0.0,46,0.00,,,-99.99,,2013-05-24 19:01:00,
2013-05-24 15:11:00,54.0,34.0,-100.00,SE,130,0.0,0.0,45,0.00,,,-99.99,,2013-05-24 19:11:00,
2013-05-24 15:21:00,56.0,33.0,-100.00,ESE,105,0.0,0.0,42,0.00,,,-99.99,,2013-05-24 19:21:00,
2013-05-24 15:32:00,55.0,34.0,-100.00,ESE,120,0.0,0.0,45,0.00,,,-99.99,,2013-05-24 19:32:00,
2013-05-24 15:42:00,55.0,33.0,-100.00,SE,130,0.0,0.0,43,0.00,,,-99.99,,2013-05-24 19:42:00,
2013-05-24 15:52:00,56.0,34.0,-100.00,East,100,0.0,0.0,43,0.00,,,-99.99,,2013-05-24 19:52:00,
2013-05-24 16:02:00,56.0,35.0,-100.00,East,95,0.0,0.0,45,0.00,,,-99.99,,2013-05-24 20:02:00,
2013-05-24 16:11:00,56.0,34.0,-100.00,ENE,70,0.0,0.0,42,0.00,,,-99.99,,2013-05-24 20:11:00,
2013-05-24 16:21:00,56.0,34.0,-100.00,ESE,115,0.0,0.0,44,0.00,,,-99.99,,2013-05-24 20:21:00,
2013-05-24 16:32:00,56.0,33.0,-100.00,ESE,105,0.0,0.0,42,0.00,,,-99.99,,2013-05-24 20:32:00,
2013-05-24 16:42:00,56.0,33.0,-100.00,SE,130,0.0,0.0,42,0.00,,,-99.99,,2013-05-24 20:42:00,
2013-05-24 16:52:00,57.0,35.0,-100.00,ESE,105,0.0,0.0,43,0.00,,,-99.99,,2013-05-24 20:52:00,
2013-05-24 17:01:00,57.0,34.0,-100.00,SSE,165,0.0,0.0,42,0.00,,,-99.99,,2013-05-24 21:01:00,
2013-05-24 17:11:00,56.0,35.0,-100.00,ESE,115,0.0,0.0,43,0.00,,,-99.99,,2013-05-24 21:11:00,
2013-05-24 17:21:00,56.0,34.0,-100.00,ESE,110,0.0,0.0,43,0.00,,,-99.99,,2013-05-24 21:21:00,
2013-05-24 17:33:00,56.0,33.0,-100.00,ESE,120,0.0,0.0,41,0.00,,,-99.99,,2013-05-24 21:33:00,
2013-05-24 17:42:00,57.0,34.0,-100.00,ESE,115,0.0,0.0,42,0.00,,,-99.99,,2013-05-24 21:42:00,
2013-05-24 17:53:00,57.0,34.0,-100.00,SE,140,0.0,0.0,42,0.00,,,-99.99,,2013-05-24 21:53:00,
2013-05-24 18:03:00,57.0,34.0,-100.00,SE,135,0.0,0.0,42,0.00,,,-99.99,,2013-05-24 22:03:00,
2013-05-24 18:12:00,57.0,36.0,-100.00,ESE,105,0.0,0.0,44,0.00,,,-99.99,,2013-05-24 22:12:00,
2013-05-24 18:22:00,57.0,35.0,-100.00,SE,130,0.0,0.0,43,0.00,,,-99.99,,2013-05-24 22:22:00,
2013-05-24 18:33:00,57.0,35.0,-100.00,SE,130,0.0,0.0,43,0.00,,,-99.99,,2013-05-24 22:33:00,
2013-05-24 18:42:00,58.0,36.0,-100.00,ESE,120,0.0,0.0,43,0.00,,,-99.99,,2013-05-24 22:42:00,
2013-05-24 18:52:00,58.0,36.0,-100.00,East,100,0.0,0.0,43,0.00,,,-99.99,,2013-05-24 22:52:00,
2013-05-24 19:02:00,57.0,35.0,-100.00,SE,140,0.0,0.0,43,0.00,,,-99.99,,2013-05-24 23:02:00,
2013-05-24 19:11:00,57.0,36.0,-100.00,SE,140,0.0,0.0,44,0.00,,,-99.99,,2013-05-24 23:11:00,
2013-05-24 19:22:00,57.0,36.0,-100.00,South,180,0.0,0.0,45,0.00,,,-99.99,,2013-05-24 23:22:00,
2013-05-24 19:32:00,57.0,36.0,-100.00,South,180,0.0,0.0,45,0.00,,,-99.99,,2013-05-24 23:32:00,
2013-05-24 19:42:00,57.0,36.0,-100.00,SE,125,0.0,0.0,45,0.00,,,-99.99,,2013-05-24 23:42:00,
2013-05-24 19:52:00,57.0,37.0,-100.00,SSE,155,0.0,0.0,46,0.00,,,-99.99,,2013-05-24 23:52:00,
2013-05-24 20:01:00,56.0,36.0,-100.00,SE,140,0.0,0.0,46,0.00,,,-99.99,,2013-05-25 00:01:00,
2013-05-24 20:12:00,56.0,37.0,-100.00,SE,145,0.0,0.0,47,0.00,,,-99.99,,2013-05-25 00:12:00,
2013-05-24 20:21:00,56.0,37.0,-100.00,SSE,150,0.0,0.0,47,0.00,,,-99.99,,2013-05-25 00:21:00,
2013-05-24 20:32:00,56.0,37.0,-100.00,SSE,155,0.0,0.0,47,0.00,,,-99.99,,2013-05-25 00:32:00,
2013-05-24 20:42:00,56.0,37.0,-100.00,SSW,205,0.0,0.0,49,0.00,,,-99.99,,2013-05-25 00:42:00,
2013-05-24 20:51:00,55.0,37.0,-100.00,SSE,160,0.0,0.0,49,0.00,,,-99.99,,2013-05-25 00:51:00,
2013-05-24 21:01:00,55.0,37.0,-100.00,SSE,150,0.0,0.0,50,0.00,,,-99.99,,2013-05-25 01:01:00,
2013-05-24 21:11:00,55.0,37.0,-100.00,SSW,195,0.0,0.0,51,0.00,,,-99.99,,2013-05-25 01:11:00,
2013-05-24 21:22:00,54.0,37.0,-100.00,South,180,0.0,0.0,53,0.00,,,-99.99,,2013-05-25 01:22:00,
2013-05-24 21:32:00,53.0,37.0,-100.00,South,180,0.0,0.0,54,0.00,,,-99.99,,2013-05-25 01:32:00,
2013-05-24 21:42:00,53.0,37.0,-100.00,SSW,195,0.0,0.0,55,0.00,,,-99.99,,2013-05-25 01:42:00,
2013-05-24 21:52:00,52.0,37.0,-100.00,South,190,0.0,0.0,56,0.00,,,-99.99,,2013-05-25 01:52:00,
2013-05-24 22:02:00,52.0,37.0,-100.00,South,190,0.0,0.0,57,0.00,,,-99.99,,2013-05-25 02:02:00,
2013-05-24 22:12:00,52.0,37.0,-100.00,SSW,205,0.0,0.0,58,0.00,,,-99.99,,2013-05-25 02:12:00,
2013-05-24 22:21:00,51.0,37.0,-100.00,SSW,200,0.0,0.0,59,0.00,,,-99.99,,2013-05-25 02:21:00,
2013-05-24 22:32:00,51.0,37.0,-100.00,South,190,0.0,0.0,59,0.00,,,-99.99,,2013-05-25 02:32:00,
2013-05-24 22:42:00,51.0,37.0,-100.00,South,175,0.0,0.0,59,0.00,,,-99.99,,2013-05-25 02:42:00,
2013-05-24 22:51:00,50.0,37.0,-100.00,South,185,0.0,0.0,60,0.00,,,-99.99,,2013-05-25 02:51:00,
2013-05-24 23:02:00,50.0,37.0,-100.00,South,190,0.0,0.0,61,0.00,,,-99.99,,2013-05-25 03:02:00,
2013-05-24 23:11:00,49.0,37.0,-100.00,South,180,0.0,0.0,62,0.00,,,-99.99,,2013-05-25 03:11:00,
2013-05-24 23:21:00,49.0,37.0,-100.00,SSW,205,0.0,0.0,64,0.00,,,-99.99,,2013-05-25 03:21:00,
2013-05-24 23:32:00,49.0,37.0,-100.00,South,190,0.0,0.0,64,0.00,,,-99.99,,2013-05-25 03:32:00,
2013-05-24 23:43:00,48.0,37.0,-100.00,SSW,205,0.0,0.0,65,0.00,,,-99.99,,2013-05-25 03:43:00,
2013-05-24 23:53:00,48.0,37.0,-100.00,SSW,195,0.0,0.0,65,0.00,,,-99.99,,2013-05-25 03:53:00,